Location: Ku?niki
(51.4449°N, 17.8974°E)
Time: 07:24:21
(UTC+00:00)

EO-79 - Pass Details

Date: 30 June 2022
Orbit: 588 x 603 km, 98.0° (Epoch: 17 August)

Event Time Altitude Azimuth Distance (km) Brightness Sun altitude
Rises 23:20:00 0° 29° (NNE) 2,857 ? -15.2°
Reaches altitude 10° 23:23:04 10° 53° (NE) 1,951 ? -15.1°
Maximum altitude 23:25:30 15° 89° (E) 1,651 ? -15.1°
Drops below altitude 10° 23:27:55 10° 124° (SE) 1,947 ? -15.0°
Enters shadow 23:28:37 - 131° (SE) 2,117 ? -15.0°
